{"data":{"norad_id":62116,"intl_designator":"2024-222C","name":"STARLINK-32502","alt_names":[],"object_type":"PAYLOAD","status":"ACTIVE","operator":null,"country":"US","launch_date":"2024-11-27","launch_site_code":"AFETR","launch_vehicle":null,"mission":null,"orbit_class":"UNKNOWN","rcs_meters":null,"size_class":null,"mass_kg":null,"dimensions":null,"purposes":["comms"],"wikipedia_slug":null,"has_3d_model":false,"image_url":null,"decayed_at":null,"tle_current":{"epoch":"2026-09-21T21:18:31.998240Z","epoch_age_seconds":61937,"freshness":"FRESH","line1":"1 62116U 24222C   26264.88787035  .00012264  00000+0  45425-3 0  9991","line2":"2 62116  43.0023 108.2754 0001389 276.3705  83.6988 15.27592755102810","mean_motion":15.27592755,"eccentricity":0.0001389,"inclination_deg":43.0023,"raan_deg":108.2754,"arg_perigee_deg":276.3705,"mean_anomaly_deg":83.6988,"bstar":0.00045425,"rev_number":10281,"period_min":94.265961610953,"perigee_km":482.05788980306,"apogee_km":483.96391669058,"semimajor_km":6861.1479032468,"source":"CELESTRAK","updated_at":"2026-09-22T09:00:49.523871Z"}}}